User: anonymous   Login
Location: ??
(34.7707°N, 135.6540°E)
Time: 20:07:52
(UTC+00:00)
Language:

USA 238 - Orbit

View from above orbital plane
View from above orbital plane
View from above satellite
View from above satellite

Ground track
Ground track

The orbit data is extracted from the following two-line orbital elements,

1 38758U 12048A   20154.87485642 0.00000000  00000-0  00000-0 0    05
2 38758  63.4398  68.5237 0123059   0.5074 359.4926 13.40802223    06
Epoch (UTC): 02 June 2020 20:59:47
Eccentricity: 0.0123059
inclination: 63.4398°
perigee height: 1014 km
apogee height: 1198 km
right ascension of ascending node: 68.5237°
argument of perigee: 0.5074°
revolutions per day: 13.40802223
mean anomaly at epoch: 359.4926°
orbit number at epoch: 0

The dashed part of the orbit path shows where the satellite is in the earth's shadow,  

DLR